Tracking 19792 objects as of 16-Jul-2019
HD Live streaming from Space Station
objects crossing your sky now

FENGYUN 1C DEB

Track FENGYUN 1C DEB now!
10-day predictions


NORAD ID: 30611
Int'l Code: 1999-025AMS
Perigee: 421.9 km
Apogee: 660.7 km
Inclination: 98.6 °
Period: 95.3 minutes
Semi major axis: 6912 km
RCS: 0.0108 m2 (small)
Launch date: May 10, 1999
Source: People's Republic of China (PRC)
Launch site: Taiyaun Space Center, China (TSC)

Note: This is SATELLITE DEBRIS
aabbcc
Your satellite tracking list
Your tracking list is empty




NASA's NSSDC Master Catalog

Two Line Element Set (TLE):
1 30611U 99025AMS 19196.55089376 +.00001990 +00000-0 +88421-4 0  9991
2 30611 098.6385 228.9672 0172735 142.3614 218.9849 15.10671577672099
Source of the keplerian elements: AFSPC